THORAD AGENA D DEB, 4655

Orbit data source: Space-Track

THORAD AGENA D DEB, 4655 is space debris in SSO originally from a launch on Wed, 08 Apr 1970 UTC launched from the Air Force Western Test Range (AFWTR). Debris objects in space refer to the collection of defunct objects orbiting the Earth. Examples of debris include non-operational satellites, rocket bodies, and fragments generated from explosions, collisions, or faulty payload assembly.

Loading next visibility...
THORAD AGENA D DEB details
Identifier
4655, 1970-025AP
Orbit
SSO
Last TLE update1 day ago
Origin
Flag of USGSFC (US)
ManufacturerUnknown
MissionSpacecraft
Bus & MotorUnknown
MassUnknown
Launch date (UTC)
1970-04-08 (55 years ago)
Launch vehicleUnknown
Launch site
Air Force Western Test Range (AFWTR)
Object type
Payload
Rocket body
Debris
Shape & HBRUnknown
Radar Cross SectionSmall (<0.1 m²)

Expand to show TLE details & history

TLE from 1 day ago
0 THORAD AGENA D DEB
1 04655U 70025AP  24360.21939914  .00000573  00000-0  71122-3 0  9998
2 04655  99.9734  81.1794 0054995  78.1487 282.5817 13.68980386724064
Epoch: 2024-12-25T05:15Z
Definitive object data (Epoch: 2024-12-25T05:15:56.085Z)
Latitude-0.00009°
Longitude-92.02056°
Altitude997.405 km
Speed7.357 km/s
True Right ascension05h 24m 43s
True Declination0° 00' 00"
Sunlit
Object was in full shadow at TLE epoch
Visualization TLE readout
Latitude2.05798°
Longitude-91.09622°
Altitude993.579 km
Speed7.361 km/s
Apparent Right ascension02h 56m 50s
Apparent Declination-26° 20' 27"
Sunlit
Object is in full shadow
Visualization observer readout
Local Sidereal Time10:26:56
Azimuth261.751° W
Elevation-33.233°
Doppler factor1
Orbital elements
Apogee altitude1,041.103 km
Perigee altitude959.945 km
Semi-major axis7,378.661 km
Eccentricity0.0054995
Inclination99.9734°
RAAN81.1794°
Arg. of periapsis78.1487°
True anomaly281.96573°
Mean anomaly282.5817°
Eccentric anomaly282.2738°
Mean motion3.42434 °/min
BSTAR0.00071122
Orbital period105.13 mins
Loading maneuver chart data...

THORAD AGENA D DEB Visibility forecast

Observer location: undefined°, undefined

Span
Click to sort rows by Start time (UTC) header in descending order
Start Az.
Max El. time (UTC)
Max El. Az.
Max El.
End time (UTC)
End Az.
5 mins2024-12-26 16:59:39.049Z67.174° ENE2024-12-26 17:01:39.049Z87.285° E13.098°2024-12-26 17:04:39.049Z117.322° SE
10 mins2024-12-26 18:41:39.049Z13.391° NNE2024-12-26 18:46:39.049Z228.398° WSW44.531°2024-12-26 18:51:39.049Z199.667° SSW
4 mins2024-12-26 20:27:39.049Z319.465° NNW2024-12-26 20:28:39.049Z309.016° NW13.297°2024-12-26 20:31:39.049Z278.522° WNW
9 mins2024-12-27 04:45:39.049Z128.73° SE2024-12-27 04:49:39.049Z76.905° E32.596°2024-12-27 04:54:39.049Z3.829° NNE
9 mins2024-12-27 06:29:39.049Z209.358° SW2024-12-27 06:33:39.049Z260.011° W26.725°2024-12-27 06:38:39.049Z321.138° NNW
|